Wind_Speed
4 1 2 5 8 11 15 18 21 21 20 19 19 20 22 24 25 26 27 29 30 29
3 3 4 7 10 13 16 19 20 19 18 19 21 23 25 27 30 30 30 31 30 32
4 4 6 8 11 14 17 18 18 18 19 21 24 26 28 31 32 32 31 30 33 35
5 6 7 10 13 16 18 18 18 19 21 24 26 29 32 33 33 32 31 32 36 34
7 7 9 12 14 17 18 17 18 21 23 26 29 32 33 34 34 31 32 37 37 35
8 8 10 13 16 17 17 18 20 23 26 29 32 33 33 35 30 31 36 39 38 36
7 9 12 15 17 18 19 20 22 25 28 31 33 33 35 29 33 39 40 40 36 33
8 10 14 16 18 18 19 21 24 28 31 32 32 34 28 31 33 36 41 40 30 26
8 11 15 18 18 18 20 24 28 31 32 33 32 32 28 27 31 35 38 33 31 31
9 12 16 17 17 19 23 27 30 31 32 32 33 33 27 28 30 33 35 31 31 33
11 14 14 15 18 21 26 29 31 32 33 34 35 32 28 28 29 33 32 32 30 32
11 12 14 16 20 24 28 30 31 32 34 35 35 32 28 26 29 33 36 34 31 32
11 12 14 18 23 27 29 31 32 34 35 34 35 32 26 25 30 34 35 34 31 37
11 13 17 21 24 28 30 32 34 36 36 35 29 29 26 27 29 31 34 35 41 39
Wind_Direction
152 180 303 330 334 333 335 333 331 327 325 323 322 322 323 323 324 323 318 312 312 306
208 259 303 320 328 331 332 329 329 327 326 325 324 324 323 323 322 320 315 311 309 305
242 281 302 318 326 330 329 329 329 328 326 326 325 324 321 319 317 314 313 308 304 305
260 283 302 318 325 327 329 330 330 328 327 326 323 321 318 317 316 313 310 305 308 305
262 285 306 318 325 329 329 329 328 326 326 325 323 320 319 318 316 312 304 305 308 306
268 292 307 320 327 328 328 327 327 328 327 325 323 321 320 317 313 301 300 308 310 307
278 299 316 325 326 327 328 328 329 328 327 326 324 322 321 317 304 307 309 312 313 310
287 311 322 325 327 327 328 331 331 329 328 327 325 321 314 308 308 308 309 315 317 316
301 319 328 330 328 330 333 333 331 330 329 325 321 317 312 311 309 307 311 319 322 315
307 325 334 330 331 334 335 333 331 329 327 324 322 322 315 313 309 307 315 320 317 315
319 330 332 331 334 334 333 331 329 328 329 325 325 324 317 314 307 311 317 317 316 312
321 333 331 332 334 335 330 329 329 331 328 328 327 322 318 314 313 312 315 317 314 314
333 333 333 334 334 332 328 330 331 330 330 328 324 324 320 316 312 312 312 314 312 317
335 331 332 331 330 331 333 331 331 330 329 327 325 318 318 316 314 314 315 315 318 321
Height
1483 1484 1485 1485 1484 1483 1482 1479 1477 1475 1473 1471 1469 1466 1463 1461 1458 1454 1450 1447 1443 1439
1482 1483 1483 1482 1482 1481 1479 1477 1474 1472 1470 1468 1466 1463 1460 1457 1453 1449 1445 1441 1437 1433
1480 1481 1481 1480 1479 1478 1476 1473 1471 1469 1467 1465 1463 1460 1456 1452 1448 1443 1439 1435 1431 1426
1478 1479 1478 1478 1477 1475 1473 1470 1468 1466 1464 1462 1459 1455 1451 1446 1441 1437 1433 1429 1424 1419
1476 1476 1476 1475 1473 1472 1470 1468 1465 1463 1460 1458 1454 1450 1445 1440 1436 1431 1426 1422 1417 1412
1474 1474 1473 1472 1471 1469 1467 1465 1462 1459 1456 1453 1449 1444 1439 1435 1430 1426 1421 1416 1410 1405
1471 1471 1471 1469 1468 1466 1464 1461 1458 1455 1452 1448 1443 1439 1434 1429 1425 1419 1414 1409 1404 1399
1469 1469 1468 1467 1465 1463 1460 1457 1454 1451 1447 1443 1439 1434 1430 1425 1419 1413 1406 1402 1397 1393
1467 1466 1465 1463 1461 1459 1456 1454 1451 1447 1443 1438 1434 1430 1426 1421 1414 1407 1402 1395 1391 1389
1464 1463 1461 1460 1458 1456 1453 1450 1446 1442 1438 1433 1428 1424 1419 1415 1408 1402 1397 1392 1388 1383
1461 1460 1458 1457 1455 1452 1449 1446 1441 1437 1432 1427 1422 1418 1413 1408 1402 1396 1392 1388 1384 1379
1458 1456 1455 1454 1451 1449 1445 1441 1436 1432 1426 1421 1416 1412 1408 1403 1397 1391 1386 1382 1379 1375
1455 1454 1452 1450 1448 1445 1441 1436 1431 1426 1422 1417 1411 1407 1403 1400 1394 1387 1381 1377 1372 1369
1452 1451 1449 1448 1445 1440 1435 1431 1426 1421 1416 1411 1407 1402 1399 1395 1390 1384 1377 1371 1365 1361